Location: Houhaj�rvi
(61.2833°N, 23.0000°E)
Time: 18:29:28
(UTC+00:00)

NOSS 2-3 (C) - Pass Details

Date: 27 February 2020
Orbit: 585 x 1627 km, 63.4° (Epoch: 26 March)

Event Time Altitude Azimuth Distance (km) Brightness Sun altitude
Rises 17:54:00 0° 228° (SW) 2,931 7.6 -16.1°
Reaches altitude 10° 17:56:06 10° 225° (SW) 2,098 6.7 -16.3°
Maximum altitude 18:00:45 64° 145° (SE) 851 4.0 -16.8°
Enters shadow 18:04:31 21° 69° (ENE) 1,838 5.5 -17.3°
